This demonstration page uses our WeatherBlox Daily Observations layout. Learn more.

Left ArrowRight Arrow

44.8408, -93.29828

Hourly Observations for April 14, 2017

Temp ( °F °C ) Dew Point ( °F °C ) Humidity (%) Winds ( mph kmh ) Pressure ( in mb ) Visibility ( mi km ) Precip ( " mm )
12:53 am 00:53 Mostly Clear 50 10 42 5.6 74 74 ESE 12 19 30.21 1023 10 16 0.00 0.00
1:53 am 01:53 Mostly Clear 49 9.4 42 5.6 77 77 ESE 13 20 30.20 1023 10 16 0.00 0.00
2:53 am 02:53 Mostly Cloudy 49 9.4 42 5.6 77 77 E 13 20 30.19 1022 10 16 0.00 0.00
3:53 am 03:53 Mostly Cloudy 49 9.4 42 5.6 77 77 ESE 14 22 30.17 1022 10 16 0.00 0.00
4:53 am 04:53 Cloudy 49 9.4 42 5.6 77 77 ESE 12 19 30.16 1021 10 16 0.00 0.00
5:53 am 05:53 Cloudy 48 8.9 41 5 77 77 ESE 12 19 30.14 1021 10 16 0.00 0.00
6:53 am 06:53 Cloudy 48 8.9 41 5 77 77 ESE 8 13 30.14 1021 10 16 0.00 0.00
7:53 am 07:53 Cloudy 50 10 41 5 71 71 ESE 13 20 30.14 1021 10 16 0.00 0.00
8:53 am 08:53 Mostly Cloudy 51 10.6 42 5.6 71 71 SE 17 28 30.12 1020 9 14 0.00 0.00
9:53 am 09:53 Mostly Cloudy 55 12.8 44 6.7 67 67 SE 12 19 30.10 1019 8 13 0.00 0.00
10:53 am 10:53 Mostly Cloudy 54 12.2 45 7.2 72 72 SSE 14 22 30.08 1019 7 11 0.00 0.00
11:53 am 11:53 Cloudy 55 12.8 48 8.9 77 77 SE 13 20 30.06 1018 8 13 0.02 0.51
12:53 pm 12:53 Mostly Cloudy 60 15.6 49 9.4 67 67 SSE 15 24 30.02 1017 7 11 0.00 0.03
1:53 pm 13:53 Mostly Cloudy 65 18.3 51 10.6 61 61 SE 17 28 29.99 1016 8 13 0.00 0.00
2:53 pm 14:53 Mostly Cloudy 64 17.8 50 10 60 60 SE 18 30 29.97 1015 9 14 0.00 0.00
3:53 pm 15:53 Cloudy with Light Rain 62 16.7 53 11.7 73 73 ESE 15 24 29.95 1014 5 8 0.01 0.25
4:53 pm 16:53 Mostly Cloudy 61 16.1 52 11.1 72 72 ESE 14 22 29.93 1014 9 14 0.00 0.03
5:53 pm 17:53 Cloudy 63 17.2 52 11.1 68 68 SE 17 28 29.91 1013 10 16 0.00 0.00
6:53 pm 18:53 Cloudy with Light Rain 59 15 54 12.2 83 83 SE 15 24 29.91 1013 3 4 0.02 0.51
7:14 pm 19:14 Cloudy with Light Rain 58 14.4 54 12.2 87 87 SE 13 20 29.91 1013 4 6 0.01 0.25
7:42 pm 19:42 Cloudy with Haze 59 15 54 12 82 82 SE 13 20 29.88 1012 3 4 0.00 0.00
7:51 pm 19:51 Cloudy with Haze 59 15 54 12 82 82 SE 15 24 29.88 1012 4 6 0.01 0.25
7:53 pm 19:53 Cloudy with Haze 59 15 54 12.2 83 83 SE 13 20 29.89 1012 5 8 0.01 0.25
8:36 pm 20:36 Cloudy with Rain 59 15 54 12 82 82 SSE 9 15 29.88 1012 6 10 0.00 0.00
8:53 pm 20:53 Cloudy with Light Rain 59 15 54 12.2 83 83 SSE 12 19 29.90 1012 3 5 0.02 0.51
9:37 pm 21:37 Cloudy 58 14.4 54 12.2 87 87 SE 13 20 29.88 1012 7 11 0.01 0.25
9:53 pm 21:53 Cloudy 58 14.4 54 12.2 87 87 SE 9 15 29.88 1012 7 11 0.01 0.25
10:35 pm 22:35 Cloudy with Mist and Fog 58 14.4 54 12.2 87 87 SE 14 22 29.85 1011 6 10 0.00 0.00
10:53 pm 22:53 Cloudy with Mist and Fog 58 14.4 54 12.2 87 87 SE 12 19 29.85 1011 6 10 0.00 0.00
11:53 pm 23:53 Cloudy with Light Rain 58 14.4 55 12.8 90 90 SE 12 19 29.83 1010 3 5 0.01 0.25

Powered by AerisWeather